Temp
-16 -16 -17 -16 -16 -16 -16 -16 -15 -15 -15 -14 -14 -14 -14 -14 -14 -14 -14 -14 -14 -13 -13 -13 -13 -13 -13
-17 -17 -16 -16 -17 -16 -16 -16 -15 -15 -15 -15 -14 -14 -14 -14 -14 -15 -14 -14 -14 -14 -14 -14 -13 -13 -13
-16 -16 -17 -16 -16 -16 -16 -16 -16 -15 -15 -15 -15 -15 -14 -15 -14 -14 -14 -14 -14 -14 -13 -13 -13 -13 -13
-17 -17 -17 -17 -16 -16 -16 -16 -16 -16 -15 -15 -15 -15 -14 -14 -15 -15 -14 -14 -14 -14 -13 -14 -13 -13 -13
-17 -17 -17 -17 -17 -17 -17 -16 -16 -16 -16 -16 -15 -15 -15 -15 -14 -15 -15 -14 -14 -14 -14 -13 -14 -14 -13
-18 -17 -18 -18 -17 -17 -17 -17 -17 -17 -16 -16 -16 -15 -15 -15 -15 -15 -15 -15 -15 -15 -14 -14 -14 -14 -14
-21 -20 -19 -19 -18 -18 -17 -17 -17 -17 -16 -16 -16 -16 -16 -16 -16 -15 -16 -15 -15 -15 -15 -15 -15 -15 -15
-22 -22 -21 -21 -20 -19 -18 -18 -17 -18 -17 -16 -17 -16 -16 -16 -16 -16 -16 -16 -15 -15 -15 -15 -15 -15 -15
-24 -24 -23 -22 -21 -20 -20 -18 -18 -18 -18 -17 -18 -17 -16 -16 -17 -16 -16 -16 -16 -15 -15 -15 -15 -15 -15
-26 -25 -25 -24 -23 -22 -20 -20 -18 -18 -19 -17 -17 -17 -17 -17 -16 -17 -16 -16 -16 -15 -15 -16 -15 -15 -15
-27 -27 -26 -25 -24 -23 -22 -21 -21 -19 -20 -18 -17 -17 -17 -17 -17 -17 -17 -16 -16 -16 -16 -16 -16 -16 -15
-28 -28 -28 -28 -27 -26 -24 -22 -21 -21 -20 -19 -18 -18 -17 -17 -18 -17 -17 -16 -16 -16 -16 -16 -16 -16 -16
-29 -30 -30 -30 -29 -28 -27 -25 -23 -21 -21 -21 -19 -19 -18 -17 -17 -18 -17 -17 -17 -16 -16 -16 -17 -16 -16
-31 -32 -32 -32 -32 -31 -30 -28 -26 -24 -22 -21 -21 -20 -19 -18 -17 -18 -18 -17 -17 -17 -16 -16 -16 -17 -16
-33 -33 -34 -34 -33 -33 -33 -32 -29 -27 -25 -23 -22 -21 -20 -19 -18 -18 -18 -18 -18 -18 -17 -16 -16 -16 -16
-34 -34 -34 -34 -34 -34 -34 -33 -32 -30 -28 -26 -24 -22 -22 -21 -19 -19 -19 -18 -18 -18 -18 -17 -17 -16 -16
-34 -35 -35 -34 -34 -35 -35 -35 -34 -33 -31 -29 -27 -24 -23 -22 -22 -20 -21 -20 -19 -18 -18 -18 -17 -17 -17
Height
5568 5568 5570 5571 5570 5573 5577 5578 5583 5586 5590 5594 5598 5599 5608 5612 5617 5622 5628 5633 5638 5643 5647 5650 5653 5659 5665
5555 5553 5555 5556 5557 5559 5561 5564 5567 5571 5574 5578 5583 5588 5592 5597 5602 5607 5613 5618 5622 5628 5633 5638 5643 5647 5651
5540 5539 5538 5538 5540 5542 5544 5548 5552 5557 5558 5562 5568 5571 5575 5581 5587 5592 5597 5601 5609 5612 5618 5624 5629 5633 5638
5520 5522 5521 5522 5523 5525 5527 5530 5534 5538 5543 5547 5552 5555 5561 5566 5572 5576 5581 5586 5592 5597 5601 5607 5613 5619 5624
5499 5499 5502 5504 5506 5508 5510 5513 5516 5521 5525 5532 5537 5541 5546 5550 5555 5560 5565 5570 5576 5581 5586 5591 5597 5603 5610
5476 5477 5478 5482 5485 5489 5493 5497 5501 5504 5508 5514 5519 5524 5529 5535 5539 5545 5549 5554 5560 5565 5571 5577 5583 5587 5593
5454 5453 5455 5456 5462 5467 5471 5476 5483 5484 5490 5498 5499 5507 5513 5519 5524 5530 5535 5540 5545 5552 5557 5564 5570 5576 5581
5432 5432 5430 5432 5434 5440 5447 5452 5460 5465 5469 5477 5479 5489 5496 5503 5507 5514 5521 5528 5534 5539 5545 5550 5556 5563 5569
5411 5408 5407 5406 5408 5413 5418 5426 5435 5442 5447 5457 5463 5470 5475 5483 5490 5498 5506 5513 5521 5528 5533 5537 5543 5550 5556
5388 5384 5380 5381 5381 5383 5390 5398 5406 5416 5422 5430 5440 5448 5457 5464 5472 5481 5488 5496 5505 5514 5521 5526 5532 5537 5544
5365 5360 5355 5352 5350 5354 5359 5366 5374 5385 5392 5402 5415 5423 5434 5445 5453 5462 5471 5480 5489 5498 5507 5514 5520 5527 5534
5341 5335 5329 5324 5322 5322 5326 5333 5343 5355 5364 5371 5385 5395 5408 5423 5434 5439 5451 5461 5471 5480 5490 5499 5506 5514 5522
5316 5308 5300 5296 5293 5294 5296 5301 5311 5322 5333 5342 5353 5367 5381 5395 5409 5420 5428 5441 5452 5462 5471 5481 5490 5499 5508
5294 5286 5280 5275 5272 5269 5272 5274 5281 5291 5298 5309 5323 5337 5352 5367 5381 5396 5409 5417 5430 5444 5452 5463 5474 5483 5493
5275 5268 5264 5261 5257 5254 5252 5253 5256 5262 5271 5278 5292 5309 5323 5337 5352 5368 5383 5396 5406 5419 5432 5443 5454 5466 5477
5263 5255 5251 5247 5245 5240 5235 5234 5237 5239 5245 5252 5263 5280 5294 5309 5325 5339 5353 5370 5382 5394 5410 5424 5436 5449 5459
5251 5244 5238 5235 5232 5228 5223 5220 5220 5222 5225 5231 5239 5250 5265 5284 5295 5311 5326 5342 5357 5372 5387 5403 5416 5428 5439
Wind_Speed
50 52 47 57 49 55 58 52 49 50 52 56 58 53 56 56 61 53 53 56 56 59 57 58 54 54 54
46 46 56 58 54 55 53 57 56 49 53 53 51 52 54 51 52 53 57 59 61 54 53 56 54 56 57
56 52 50 55 55 57 58 58 53 53 55 52 58 52 60 51 51 52 62 55 59 61 59 59 61 62 60
65 60 58 55 51 49 57 56 54 56 60 56 58 55 52 54 58 54 58 54 59 58 65 65 60 61 61
68 67 64 62 58 56 50 51 51 51 53 56 56 60 62 64 61 62 64 63 65 61 54 53 59 67 64
70 70 68 67 67 63 60 55 50 52 53 56 60 61 60 59 57 57 61 62 62 57 56 55 56 56 56
61 66 70 70 68 69 68 65 62 59 60 54 57 55 54 56 57 50 49 50 51 52 51 53 49 45 44
60 61 64 66 71 71 73 74 71 68 65 61 62 61 54 53 51 51 51 50 48 48 49 49 51 50 48
61 63 65 68 69 71 73 75 77 76 75 70 67 62 61 60 54 52 54 53 52 51 45 47 47 49 52
69 71 72 71 72 74 73 75 78 80 80 80 77 75 72 68 62 56 53 56 54 53 48 43 46 46 47
65 67 70 74 77 76 77 77 77 80 81 85 84 81 79 73 72 68 61 58 60 60 50 56 46 42 40
62 65 68 68 69 72 75 78 80 79 81 84 88 87 85 81 74 75 72 66 62 62 59 53 54 48 45
65 65 61 59 61 64 69 73 78 82 82 83 87 89 90 88 83 78 79 77 70 66 64 62 56 55 53
63 53 46 44 46 51 54 64 73 77 84 86 86 88 90 92 91 86 83 81 79 73 71 69 68 61 59
54 45 39 38 39 42 46 50 60 71 77 85 88 88 89 91 94 91 89 87 84 80 79 78 74 74 65
49 41 37 36 35 38 41 44 48 55 66 76 85 88 89 90 92 92 91 91 91 88 82 83 79 81 74
43 40 35 34 34 34 34 33 34 42 52 61 72 84 88 89 91 92 90 90 91 92 90 86 84 82 82
Wind_Direction
268 264 259 266 256 244 257 264 255 249 250 252 253 244 249 246 244 238 243 242 243 241 237 232 236 240 242
275 270 260 259 261 256 260 255 262 262 251 241 247 250 245 246 242 244 239 243 238 236 239 238 242 244 250
274 272 272 259 257 256 255 249 253 250 251 253 250 251 238 239 244 248 245 244 243 243 240 244 244 244 247
271 267 267 267 258 252 250 249 245 245 248 252 250 246 242 239 243 248 245 246 247 254 246 251 244 243 246
267 266 262 261 259 259 252 242 241 241 239 239 240 242 242 240 240 243 241 247 252 253 246 251 243 242 242
265 264 263 257 255 254 254 248 240 241 233 231 238 240 241 240 239 241 246 247 248 246 241 241 245 245 243
272 267 262 261 254 251 250 249 245 243 234 236 234 231 233 236 238 239 243 238 235 235 238 240 240 235 240
275 271 269 263 259 253 248 245 245 243 243 234 239 230 231 236 233 234 235 236 237 238 239 239 234 236 242
279 275 271 267 263 256 253 245 243 242 240 238 237 236 231 231 235 234 233 233 236 230 231 237 234 235 238
280 278 275 270 265 260 254 250 245 240 241 238 235 234 235 235 230 237 230 230 230 226 229 227 219 222 232
280 279 277 273 269 263 256 250 246 242 240 238 236 235 232 234 233 232 230 228 229 231 225 228 214 218 225
286 284 280 274 267 263 258 252 247 242 240 238 236 235 233 231 231 232 229 230 229 227 224 224 214 218 224
296 294 287 280 272 263 257 252 246 243 239 237 235 234 233 232 230 229 231 229 228 221 220 222 218 227 223
306 301 290 281 274 268 260 253 248 243 239 237 234 233 231 231 230 229 228 232 229 224 222 225 222 219 226
315 307 292 285 281 276 269 259 251 245 240 238 234 232 231 230 230 230 228 227 231 229 224 227 229 229 222
319 312 296 292 290 289 281 268 256 249 243 239 236 232 230 229 228 229 228 227 228 230 227 227 228 225 230
317 315 301 295 293 294 288 280 265 251 244 240 237 235 230 229 229 228 228 227 227 229 230 227 228 227 229